Terminal Aerodrome Forecast
Issued by NWS

Home | Current Version | Previous Version | Text Only | Print | Product List | Glossary On
Versions: 1 2 3 4 5 6 7 8 9 10 11 12 13
000
FTUS42 TJSJ 271735
TAFJPS
TAF
TJPS 271735Z 2718/2818 13010KT P6SM FEW030 BKN080
     FM272330 08004KT P6SM FEW030 BKN080
     FM281400 13010KT P6SM FEW030 BKN080
      AMD NOT SKED TIL 280300=

USA.gov is the U.S. government's official web portal to all federal, state and local government web resources and services.